Overview Statistics Trail Chart Weather Telemetry Raw packets
 

This is the latest recevied weather packets stored in our database for station/object K4WCH. If no packets are shown the sender has not sent any weather packets the latest 10 day(s).

<< 52 53 54 55 56 57 58 >>
Time Temp. Humidity Pressure Rain* Wind** Luminosity Snow
1788308372 27.22° C 87% 1016.3 hPa 0 mm - 0 W/m² -
1788308067 27.22° C 87% 1016.2 hPa 0 mm - 0 W/m² -
1788307762 27.22° C 86% 1016.2 hPa 0 mm - 0 W/m² -
1788307457 27.22° C 86% 1016.1 hPa 0 mm - 0 W/m² -
1788307152 27.22° C 86% 1016.1 hPa 0 mm - 0 W/m² -
1788306847 27.22° C 86% 1016.2 hPa 0 mm - 0 W/m² -
1788306542 27.78° C 85% 1015.9 hPa 0 mm - 1 W/m² -
1788306235 27.78° C 85% 1016.2 hPa 0 mm - 2 W/m² -
1788305931 27.78° C 85% 1016.2 hPa 0 mm - 3 W/m² -
1788305626 27.78° C 84% 1016.4 hPa 0 mm - 5 W/m² -
1788305322 27.78° C 83% 1016 hPa 0 mm - 11 W/m² -
1788305017 28.33° C 82% 1016.2 hPa 0 mm - 16 W/m² -
1788304713 28.33° C 82% 1016 hPa 0 mm - 23 W/m² -
1788304409 28.33° C 81% 1016 hPa 0 mm - 32 W/m² -
1788304105 28.33° C 82% 1016.1 hPa 0 mm - 40 W/m² -
1788303804 28.33° C 81% 1016.1 hPa 0 mm - 50 W/m² -
1788303500 28.89° C 80% 1016.1 hPa 0 mm - 61 W/m² -
1788303199 28.89° C 79% 1015.9 hPa 0 mm - 70 W/m² -
1788302895 28.89° C 79% 1016 hPa 0 mm - 77 W/m² -
1788302591 28.89° C 78% 1015.9 hPa 0 mm - 84 W/m² -
1788302287 28.89° C 77% 1015.9 hPa 0 mm - 88 W/m² -
1788301982 29.44° C 75% 1015.9 hPa 0 mm - 98 W/m² -
1788301678 29.44° C 75% 1015.7 hPa 0 mm - 124 W/m² -
1788301374 29.44° C 74% 1015.8 hPa 0 mm - 160 W/m² -
1788301069 30° C 74% 1015.9 hPa 0 mm - 170 W/m² -

* Rain latest hour (hover to see other rain measurements)
** Current wind speed in m/s (hover to see current wind gust speed)